Location: G�ndlingen
(48.0142°N, 7.6396°E)
Time: 17:49:36
(UTC+00:00)

Cosmos 2219 Rocket - Pass Details

Date: 05 July 2020
Orbit: 827 x 848 km, 71.0° (Epoch: 11 August)

Event Time Altitude Azimuth Distance (km) Brightness Sun altitude
Exits shadow 20:30:23 - 177° (S) 3,163 4.7 -8.2°
Reaches altitude 10° 20:32:28 10° 170° (S) 2,425 4.1 -8.4°
Maximum altitude 20:37:27 35° 106° (ESE) 1,307 2.8 -9.0°
Drops below altitude 10° 20:42:30 10° 42° (NE) 2,449 4.7 -9.5°
Sets 20:45:07 0° 34° (NE) 3,390 5.6 -9.8°
